This demonstration page uses our WeatherBlox Daily Observations layout. Learn more.

Left ArrowRight Arrow

31.84235, -102.49876

Hourly Observations for March 5, 2022

Temp ( °F °C ) Dew Point ( °F °C ) Humidity (%) Winds ( mph kmh ) Pressure ( in mb ) Visibility ( mi km ) Precip ( " mm )
12:53 am 00:53 Clear 66 18.9 53 11.7 63 63 S 20 31 29.70 1006 10 16 0.00 0.00
1:53 am 01:53 Clear 65 18.3 54 12.2 68 68 SW 21 33 29.75 1007 10 16 0.00 0.00
2:53 am 02:53 Clear 63 17.2 53 11.7 70 70 SW 14 22 29.74 1007 10 16 0.00 0.00
3:53 am 03:53 Clear 61 16.1 53 11.7 75 75 SSW 13 20 29.73 1007 10 16 0.00 0.00
4:53 am 04:53 Clear 58 14.4 52 11.1 81 81 SW 8 13 29.76 1008 10 16 0.00 0.00
5:53 am 05:53 Clear 55 12.8 51 10.6 87 87 SW 3 6 29.79 1009 10 16 0.00 0.00
6:53 am 06:53 Clear 53 11.7 49 9.4 86 86 Calm 29.82 1010 8 13 0.00 0.00
7:53 am 07:53 Sunny with Mist and Fog 52 11.1 50 10 93 93 SSW 3 6 29.86 1011 6 10 0.00 0.00
8:53 am 08:53 Sunny 59 15 40 4.4 49 49 SW 3 6 29.88 1012 10 16 0.00 0.00
9:53 am 09:53 Sunny 67 19.4 18 -7.8 15 15 W 14 22 29.88 1012 10 16 0.00 0.00
10:53 am 10:53 Sunny 69 20.6 17 -8.3 14 14 W 17 28 29.88 1012 10 16 0.00 0.00
11:53 am 11:53 Sunny 73 22.8 15 -9.4 11 11 WNW 25 41 29.87 1012 8 13 0.00 0.00
12:53 pm 12:53 Sunny 73 22.8 12 -11.1 9 9 W 18 30 29.85 1011 10 16 0.00 0.00
1:53 pm 13:53 Sunny 75 23.9 12 -11.1 9 9 W 18 30 29.83 1010 10 16 0.00 0.00
2:53 pm 14:53 Sunny 76 24.4 9 -12.8 7 7 W 20 31 29.80 1009 10 16 0.00 0.00
3:53 pm 15:53 Sunny 77 25 7 -13.9 7 7 W 18 30 29.80 1009 10 16 0.00 0.00
4:53 pm 16:53 Sunny 76 24.4 7 -13.9 7 7 WSW 16 26 29.80 1009 10 16 0.00 0.00
5:53 pm 17:53 Sunny 75 23.9 5 -15 6 6 WSW 20 31 29.80 1009 10 16 0.00 0.00
6:53 pm 18:53 Clear 71 21.7 5 -15 7 7 WSW 9 15 29.82 1010 9 14 0.00 0.00
7:53 pm 19:53 Clear 64 17.8 5 -15 9 9 W 5 7 29.85 1011 10 16 0.00 0.00
8:53 pm 20:53 Clear 63 17.2 4 -15.6 9 9 SSW 5 7 29.86 1011 10 16 0.00 0.00
9:53 pm 21:53 Clear 58 14.4 6 -14.4 12 12 SE 7 11 29.86 1011 10 16 0.00 0.00
10:53 pm 22:53 Clear 57 13.9 7 -13.9 13 13 ESE 8 13 29.85 1011 10 16 0.00 0.00
11:53 pm 23:53 Clear 56 13.3 8 -13.3 14 14 SE 6 9 29.85 1011 10 16 0.00 0.00

Powered by AerisWeather